Location: Newark
(35.2672°N, 80.7344°W)
Time: 20:55:39
(UTC+00:00)

Tiros 1 despin weight - All Passes

Search period start: 26 January 2020 00:00
Search period end: 05 February 2020 00:00
Orbit: 594 x 642 km, 48.2° (Epoch: 26 January)

Date Brightness Start Highest point End Pass type
(mag) Time Alt. Az. Time Alt. Az. Time Alt. Az.
26 Jan - 14:43:34 10° SSW 14:47:33 33° SE 14:51:37 10° ENE daylight
26 Jan - 16:24:45 10° WSW 16:29:02 43° NNW 16:33:23 10° NE daylight
26 Jan - 18:08:24 10° NW 18:11:30 18° N 18:14:38 10° NNE daylight
26 Jan - 19:51:14 10° NNW 19:54:26 18° N 19:57:40 10° NE daylight
26 Jan - 21:32:25 10° NW 21:36:53 45° NNE 21:41:23 10° ESE daylight
26 Jan - 23:14:11 10° WNW 23:18:22 33° SW 23:22:33 10° SSE visible
27 Jan - 14:59:32 10° SW 15:03:57 71° SE 15:08:28 10° ENE daylight
27 Jan - 16:42:00 10° W 16:45:51 27° NNW 16:49:45 10° NE daylight
27 Jan - 18:25:46 10° NW 18:28:35 16° N 18:31:27 10° NE daylight
27 Jan - 20:07:43 10° NW 20:11:26 23° NNE 20:15:10 10° ENE daylight
27 Jan - 21:48:52 10° NW 21:53:32 82° NE 21:58:13 10° SE daylight
27 Jan - 23:31:48 10° W 23:34:38 16° SW 23:37:28 10° SSW visible
28 Jan - 13:35:54 10° S 13:39:17 22° SE 13:42:43 10° E daylight
28 Jan - 15:16:07 10° WSW 15:20:31 60° NNW 15:25:01 10° NE daylight
28 Jan - 16:59:27 10° WNW 17:02:47 20° NNW 17:06:10 10° NNE daylight
28 Jan - 18:42:45 10° NNW 18:45:42 17° N 18:48:40 10° NE daylight
28 Jan - 20:24:06 10° NW 20:28:19 34° NNE 20:32:34 10° E daylight
28 Jan - 22:05:31 10° WNW 22:10:01 50° SW 22:14:32 10° SSE daylight
29 Jan - 13:51:22 10° SSW 13:55:36 45° SE 13:59:54 10° ENE daylight
29 Jan - 15:33:09 10° W 15:37:14 34° NNW 15:41:24 10° NE daylight
29 Jan - 17:16:56 10° NW 17:19:51 16° N 17:22:47 10° NNE daylight
29 Jan - 18:59:22 10° NNW 19:02:45 20° NNE 19:06:09 10° ENE daylight
29 Jan - 20:40:29 10° NW 20:45:02 57° NNE 20:49:38 10° ESE daylight
29 Jan - 22:22:36 10° WNW 22:26:22 24° SW 22:30:08 10° S daylight
30 Jan - 12:28:50 10° SSE 12:31:03 14° SE 12:33:18 10° E daylight
30 Jan - 14:07:38 10° SW 14:12:04 87° NW 14:16:35 10° NE daylight
30 Jan - 15:50:31 10° WNW 15:54:06 23° NNW 15:57:46 10° NE daylight
30 Jan - 17:34:09 10° NW 17:36:57 16° N 17:39:45 10° NE daylight
30 Jan - 19:15:47 10° NW 19:19:42 27° NNE 19:23:38 10° E daylight
30 Jan - 20:57:00 10° NW 21:01:37 76° SW 21:06:16 10° SE daylight
30 Jan - 22:41:11 10° WSW 22:42:35 11° SW 22:43:59 10° SW daylight
31 Jan - 12:43:28 10° SSW 12:47:18 29° SE 12:51:10 10° ENE daylight
31 Jan - 14:24:26 10° WSW 14:28:42 46° NNW 14:33:03 10° NE daylight
31 Jan - 16:08:01 10° NW 16:11:07 18° N 16:14:14 10° NNE daylight
31 Jan - 17:50:58 10° NNW 17:54:01 17° N 17:57:07 10° NE daylight
31 Jan - 19:32:09 10° NW 19:36:30 41° NNE 19:40:54 10° E daylight
31 Jan - 21:13:47 10° WNW 21:18:02 37° SW 21:22:19 10° SSE daylight
01 Feb - 12:59:19 10° SW 13:03:41 63° SE 13:08:06 10° ENE daylight
01 Feb - 14:41:37 10° W 14:45:29 28° NNW 14:49:25 10° NE daylight
01 Feb - 16:25:25 10° NW 16:28:11 16° N 16:30:58 10° NE daylight
01 Feb - 18:07:28 10° NW 18:11:02 22° NNE 18:14:38 10° ENE daylight
01 Feb - 19:48:34 10° NW 19:53:11 74° NE 19:57:49 10° ESE daylight
01 Feb - 21:31:14 10° W 21:34:20 18° SW 21:37:28 10° S daylight
02 Feb - 11:35:56 10° S 11:39:02 19° SE 11:42:11 10° E visible
02 Feb - 13:15:49 10° WSW 13:20:12 66° NW 13:24:40 10° NE daylight
02 Feb - 14:59:03 10° WNW 15:02:24 20° NNW 15:05:48 10° NNE daylight
02 Feb - 16:42:28 10° NNW 16:45:16 16° N 16:48:07 10° NE daylight
02 Feb - 18:23:51 10° NW 18:27:56 31° NNE 18:32:03 10° E daylight
02 Feb - 20:05:11 10° WNW 20:09:41 56° SW 20:14:14 10° SE daylight
03 Feb - 11:51:13 10° SSW 11:55:20 40° SE 11:59:30 10° ENE visible
03 Feb - 13:32:47 10° W 13:36:54 37° NNW 13:41:04 10° NE daylight
03 Feb - 15:16:33 10° NW 15:19:27 17° N 15:22:21 10° NNE daylight
03 Feb - 16:59:07 10° NNW 17:02:20 19° NNE 17:05:36 10° ENE daylight
03 Feb - 18:40:13 10° NW 18:44:41 52° NNE 18:49:12 10° ESE daylight
03 Feb - 20:22:10 10° WNW 20:26:03 27° SW 20:29:58 10° S daylight
04 Feb - 10:29:12 10° SSE 10:30:49 12° SE 10:32:27 10° ESE visible
04 Feb - 12:07:22 10° SW 12:11:47 85° SE 12:16:15 10° NE daylight
04 Feb - 13:50:06 10° WNW 13:53:44 24° NNW 13:57:26 10° NE daylight
04 Feb - 15:33:49 10° NW 15:36:32 15° N 15:39:15 10° NE daylight
04 Feb - 17:15:33 10° NW 17:19:19 25° NNE 17:23:06 10° ENE daylight
04 Feb - 18:56:42 10° NW 19:01:16 84° SW 19:05:54 10° SE daylight
04 Feb - 20:40:17 10° WSW 20:42:18 13° SW 20:44:19 10° SSW daylight
